Weather in Obor

Russia / Khabarovsk Krai     48°05′39″N   135°41′15″E
temp.,
°C
wind,
m/s
gust,
m/s
humid.,
%
clouds,
%
prec.,
mm/h
press.,
hPa
HPBL,
m
7 july, thu
thu701:00+22sse23950 0.0 100949
04:00+21s24940 0.0 100872
07:00+23s159182 0.0 1009151
10:00+29ssw46605 0.0 10081008
13:00+32ssw46483 0.0 10071856
16:00+33wsw57465 0.0 10052091
19:00+28wnw357169 0.0 1005357
22:00+23se1193100 0.1 100612
8 july, fri
fri801:00+23s2291100 0.1 100623
04:00+22sse2694100 0.1 1006142
07:00+23s2687100 0.0 1006243
10:00+27sw236596 0.0 1006762
13:00+30sw1358100 0.0 10051632
16:00+27nnw2383100 0.8 1004300
19:00+24wnw2594100 0.6 1005245
22:00+22nne1298100 0.6 100537
9 july, sat
sat901:00+21e229898 0.0 100545
04:00+21sse1196100 0.0 100515
07:00+22ssw1395100 0.0 1006121
10:00+27ssw2364100 0.0 1006868
13:00+31ssw3543100 0.0 10051804
16:00+31sw3541100 0.0 10052028
19:00+27nw2472100 0.0 1005140
22:00+23ese1189100 0.0 100616
10 july, sun
sun1001:00+21s1195100 0.0 100711
04:00+20ssw239794 0.0 100774
07:00+21ssw1388100 0.0 1009143
10:00+24ssw1372100 0.0 1009486
13:00+28w2354100 0.0 10091555
16:00+24nw2291100 2.0 1009550
19:00+23nw1193100 0.5 100929
22:00+20ese1196100 2.9 100916
11 july, mon
mon1101:00+20ese2297100 1.8 101035
04:00+19sse2598100 2.2 1010126
07:00+18ese1197100 1.8 101130
10:00+18ene1199100 6.6 101255
13:00+19e2398100 1.8 1012258
16:00+24nne456736 1.9 10111055
19:00+19nne259195 0.0 1011238
22:00+17nne1299100 0.0 101255